Hoonah, AK

2:36 AM AKST on February 27, 2017 (GMT -0900)
Hoonah

Weather History for PAOH - January, 2013

Change the Weather History Date:

Thursday, January 3, 2013

  Actual Average Record
Temperature  
Mean Temperature 32 °F -  
Max Temperature 35 °F 31 °F 39 °F (2001)
Min Temperature 30 °F 25 °F 12 °F (2017)
Degree Days  
Heating Degree Days 32    
Moisture  
Dew Point 32 °F    
Average Humidity 98    
Maximum Humidity 100    
Minimum Humidity 87    
Precipitation  
Precipitation 0.01 in - - ()
Sea Level Pressure  
Sea Level Pressure 29.90 in    
Wind  
Wind Speed 3 mph (ESE)    
Max Wind Speed 10 mph    
Max Gust Speed -    
Visibility 8 miles    
Events Snow    
Averages and records for this station are not official NWS values.
T = Trace of Precipitation, MM = Missing Value Source: NWS Daily Summary

Daily Weather History Graph

Daily Weather History Graph

Search for Another Location

Airport or City:

Trip Planner

Search our weather history database for the weather conditions in past years. The results will help you decide how hot, cold, wet, or windy it might be!

Date:

Astronomy

Jan. 03, 2013 Rise Set
Actual Time 8:46 AM AKST 3:26 PM AKST
Civil Twilight 7:55 AM AKST 4:17 PM AKST
Nautical Twilight 7:03 AM AKST 5:09 PM AKST
Astronomical Twilight 6:15 AM AKST 5:57 PM AKST
Moon 11:50 PM AKST (1/3) 10:30 AM AKST (1/3)
Length of Visible Light 8h 21m
Length of Day
6h 39m
Waning Gibbous, 64% of the Moon is Illuminated
Jan 3
Waning Gibbous
Jan 4
Last Quarter
Jan 11
New
Jan 18
First Quarter
Jan 26
Full

Hourly Weather History & Observations

Time (AKST) Temp. Windchill Dew Point Humidity Pressure Visibility Wind Dir Wind Speed Gust Speed Precip Events Conditions
12:22 AM 30.2 °F - 30.2 °F 100% 30.01 in 10.0 mi Calm Calm - N/A   Overcast
12:56 AM 31.1 °F - 31.1 °F 100% 30.01 in 10.0 mi Calm Calm - N/A   Overcast
1:56 AM 30.0 °F - 30.0 °F 100% 30.02 in 10.0 mi Calm Calm - N/A   Mostly Cloudy
2:36 AM 30.2 °F - 30.2 °F 100% 30.03 in 10.0 mi Calm Calm - N/A   Mostly Cloudy
2:56 AM 30.0 °F 26.5 °F 30.0 °F 100% 30.03 in 10.0 mi SE 3.5 mph - N/A   Overcast
3:35 AM 30.2 °F - 30.2 °F 100% 30.01 in 10.0 mi Calm Calm - N/A   Overcast
3:42 AM 30.2 °F - 30.2 °F 100% 30.01 in 1.8 mi Calm Calm - N/A   Overcast
3:56 AM 30.0 °F - 30.0 °F 100% 30.01 in 1.5 mi Calm Calm - N/A   Overcast
4:11 AM 30.2 °F 24.3 °F 30.2 °F 100% 30.00 in 3.0 mi ENE 5.8 mph - N/A   Overcast
4:30 AM 32.0 °F 26.4 °F 32.0 °F 100% 30.00 in 10.0 mi ESE 5.8 mph - N/A   Overcast
4:56 AM 31.1 °F 27.7 °F 31.1 °F 100% 30.00 in 10.0 mi ESE 3.5 mph - N/A   Overcast
5:56 AM 30.0 °F 25.2 °F 30.0 °F 100% 29.99 in 10.0 mi SSE 4.6 mph - N/A   Overcast
6:40 AM 30.2 °F - 30.2 °F 100% 29.98 in 10.0 mi Calm Calm - N/A   Overcast
6:56 AM 30.0 °F - 30.0 °F 100% 29.98 in 10.0 mi Calm Calm - N/A   Overcast
7:56 AM 32.0 °F - 32.0 °F 100% 29.97 in 10.0 mi Calm Calm - N/A   Overcast
8:56 AM 32.9 °F 28.5 °F 32.9 °F 100% 29.96 in 10.0 mi East 4.6 mph - N/A   Overcast
9:24 AM 33.8 °F 28.6 °F 33.8 °F 100% 29.95 in 10.0 mi ESE 5.8 mph - N/A   Overcast
9:56 AM 32.9 °F 27.5 °F 32.0 °F 96% 29.96 in 10.0 mi East 5.8 mph - N/A   Overcast
10:56 AM 34.0 °F - 32.0 °F 92% 29.94 in 10.0 mi Calm Calm - N/A   Overcast
11:56 AM 34.0 °F 31.0 °F 32.9 °F 96% 29.91 in 10.0 mi East 3.5 mph - N/A   Overcast
12:56 PM 34.9 °F 27.7 °F 32.9 °F 92% 29.88 in 10.0 mi East 9.2 mph - N/A   Overcast
1:56 PM 34.9 °F 29.9 °F 32.9 °F 92% 29.86 in 10.0 mi ENE 5.8 mph - N/A   Overcast
2:11 PM 35.6 °F 31.7 °F 33.8 °F 93% 29.84 in 10.0 mi NE 4.6 mph - N/A   Overcast
2:56 PM 34.0 °F 31.0 °F 32.9 °F 96% 29.84 in 10.0 mi East 3.5 mph - N/A   Overcast
3:56 PM 34.0 °F 27.2 °F 32.9 °F 96% 29.82 in 10.0 mi East 8.1 mph - N/A   Overcast
4:56 PM 34.9 °F 27.1 °F 32.0 °F 89% 29.81 in 10.0 mi East 10.4 mph - N/A   Overcast
5:29 PM 35.6 °F 28.0 °F 32.0 °F 87% 29.80 in 10.0 mi ESE 10.4 mph - N/A   Mostly Cloudy
5:56 PM 35.6 °F 28.6 °F 32.0 °F 87% 29.79 in 9.0 mi ESE 9.2 mph - N/A   Overcast
6:56 PM 34.9 °F 27.7 °F 32.9 °F 92% 29.79 in 4.0 mi ESE 9.2 mph - 0.00 in   Overcast
7:22 PM 33.8 °F 27.0 °F 33.8 °F 100% 29.78 in 3.0 mi East 8.1 mph - 0.00 in   Overcast
7:56 PM 32.9 °F 26.7 °F 32.9 °F 100% 29.78 in 4.0 mi ESE 6.9 mph - 0.00 in Snow Light Snow
8:19 PM 33.8 °F 27.0 °F 33.8 °F 100% 29.78 in 4.0 mi ESE 8.1 mph - 0.00 in Snow Light Snow
8:56 PM 33.8 °F 27.7 °F 33.8 °F 100% 29.77 in 3.0 mi ESE 6.9 mph - N/A Snow Light Snow
9:36 PM 33.8 °F 29.6 °F 33.8 °F 100% 29.77 in 5.0 mi East 4.6 mph - 0.00 in Snow Light Snow
9:56 PM 34.0 °F 28.8 °F 32.9 °F 96% 29.78 in 4.0 mi ESE 5.8 mph - 0.00 in Snow Light Snow
10:56 PM 32.9 °F 27.5 °F 32.9 °F 100% 29.80 in 3.0 mi ESE 5.8 mph - 0.01 in Snow Light Snow
11:13 PM 33.8 °F 27.7 °F 33.8 °F 100% 29.80 in 2.5 mi ESE 6.9 mph - 0.01 in Snow Light Snow
11:28 PM 33.8 °F 28.6 °F 33.8 °F 100% 29.80 in 3.0 mi East 5.8 mph - 0.01 in Snow Light Snow
11:56 PM 33.8 °F 29.6 °F 33.8 °F 100% 29.81 in 4.0 mi ESE 4.6 mph - N/A Snow Light Snow